Regional Weather Roundup
Issued by NWS

Home | Current Version | Previous Version | Graphics & Text | Print | Product List | Glossary On
Versions: 1 2 3 4 5 6 7 8 9 10 11 12 13 14 15 16 17 18 19 20 21 22 23 24 25 26 27 28 29 30 31 32 33 34 35 36 37 38 39 40 41 42 43 44 45 46 47 48 49 50
000
ASUS43 KOAX 300502
RWRNE

WEATHER ROUNDUP FOR NEBRASKA
NATIONAL WEATHER SERVICE OMAHA NE
1200 AM CDT MON MAY 30 2016

NOTES: SATELLITE DATA IS BEING USED TO AUGMENT CLOUD COVER ABOVE
       12000 FEET.
       "FAIR" INDICATES FEW OR NO CLOUDS BELOW 12,000 FEET WITH NO
       SIGNIFICANT WEATHER AND/OR OBSTRUCTIONS TO VISIBILITY.

  * THESE STATIONS DO NOT REPORT WEATHER SUCH AS RAIN...SNOW OR FOG.

NEZ001>004-019>022-054>056-300600-
NEBRASKA PANHANDLE

CITY           SKY/WX    TMP DP  RH WIND       PRES   REMARKS
SCOTTSBLUFF    CLOUDY    55  43  63 E7        30.03R
ALLIANCE       CLOUDY    55  51  86 S10       30.02R
CHADRON        CLOUDY    53  49  86 SW5       29.96F
SIDNEY         CLOUDY    58  53  84 S17       30.08R
$$

NEZ057>060-069>072-079>082-300600-
SOUTHWEST NEBRASKA

CITY           SKY/WX    TMP DP  RH WIND       PRES   REMARKS
NORTH PLATTE   CLOUDY    58  52  80 NW5       30.06R
IMPERIAL       CLOUDY    63  49  60 SW21G39   30.13R THUNDER
MCCOOK         CLOUDY    66  50  56 W12G23    30.04F
$$

NEZ005>010-023>029-035>040-094-300600-
NORTH CENTRAL NEBRASKA

CITY           SKY/WX    TMP DP  RH WIND       PRES   REMARKS
VALENTINE      CLOUDY    65  54  67 SE7       30.01R
AINSWORTH      LGT RAIN  64  54  68 S9        30.03S
BROKEN BOW     CLOUDY    63  55  75 SW6       30.02F
ORD            CLOUDY    70  59  68 SW13G20   30.00R
$$

NEZ041-046>049-061>064-073>077-083>087-300600-
SOUTH CENTRAL NEBRASKA

CITY           SKY/WX    TMP DP  RH WIND       PRES   REMARKS
GRAND ISLAND   CLOUDY    70  54  56 S15       30.04R
AURORA         CLOUDY    67  57  69 S13       30.05R
HASTINGS       MOCLDY    67  53  61 S14G24    30.06F
KEARNEY *      CLOUDY    64  52  63 S13       30.05F
YORK           CLOUDY    66  55  68 SW13      30.05S
$$

NEZ011>018-030>034-042>045-300600-
NORTHEAST NEBRASKA

CITY           SKY/WX    TMP DP  RH WIND       PRES   REMARKS
NORFOLK        CLOUDY    67  58  72 SE6       30.01F
ALBION         CLOUDY    69  54  58 SW18G28   30.00F
BLAIR          CLOUDY    72  60  66 S3        30.01F
FREMONT        CLOUDY    70  61  73 CALM      30.01S
TEKAMAH          N/A    N/A N/A N/A MISG      30.00S
$$

NEZ050>053-065>068-078-088>093-300600-
SOUTHEAST NEBRASKA

CITY           SKY/WX    TMP DP  RH WIND       PRES   REMARKS
LINCOLN        CLOUDY    72  62  71 SW5       30.03R
OMAHA EPPLEY   CLOUDY    72  61  68 SE6       30.01S
BEATRICE       CLOUDY    72  59  64 W8        30.05R
FALLS CITY     CLOUDY    70  63  78 S6        30.03S
NEBRASKA CITY  CLOUDY    71  60  70 SW8       30.03S
PLATTSMOUTH    CLOUDY    74  63  67 S9        30.02S
$$

NEZ044-045-051>053-067-300600-
OMAHA AREA

CITY           SKY/WX    TMP DP  RH WIND       PRES   REMARKS
OMAHA EPPLEY   CLOUDY    72  61  68 SE6       30.01S
BLAIR          CLOUDY    72  60  66 S3        30.01F
FREMONT        CLOUDY    70  61  73 CALM      30.01S
OFFUTT AFB     CLOUDY    71  62  71 S5        30.00F
PLATTSMOUTH    CLOUDY    74  63  67 S9        30.02S
WAHOO          FAIR      69  62  78 SE5       30.02R
$$




USA.gov is the U.S. government's official web portal to all federal, state and local government web resources and services.